Regional Weather Roundup
Issued by NWS Cleveland, OH

Home | Current Version | Previous Version | Text Only | Print | Product List | Glossary Off
Versions: 1 2 3 4 5 6 7 8 9 10 11 12 13 14 15 16 17 18 19 20 21 22 23 24 25 26 27 28 29 30 31 32 33 34 35 36 37 38 39 40 41 42 43 44 45 46 47 48 49 50

000
ASUS41 KCLE 300402
RWRCLE
OHIO REGIONAL WEATHER ROUNDUP
NATIONAL WEATHER SERVICE CLEVELAND, OH
1200 AM EDT SUN APR 30 2017

NOTE: "FAIR" INDICATES FEW OR NO CLOUDS BELOW 12,000 FEET WITH NO
SIGNIFICANT WEATHER AND/OR OBSTRUCTIONS TO VISIBILITY.

OHZ001>008-015>018-024>027-034-035-043-044-300500-
   NORTHWEST OHIO

CITY           SKY/WX    TMP DP  RH WIND       PRES   REMARKS
DEFIANCE       LGT RAIN  43  38  82 E13       30.06F
FINDLAY        CLOUDY    46  38  73 E13       30.05F
TOLEDO EXPRESS RAIN      44  39  82 E12       30.12F
TOLEDO EXEC    LGT RAIN  47  39  74 NE14G22   30.12F
LIMA           CLOUDY    46  43  89 E22G28    30.03F
$$

OHZ009>014-019>023-028>033-038-089-300500-
   NORTHEAST OHIO

CITY           SKY/WX    TMP DP  RH WIND       PRES   REMARKS
CLE-HOPKINS    CLOUDY    49  39  68 NE12      30.16F
CLE-LAKEFRONT  PTCLDY    49  41  74 NE13      30.14F
CUY CO. ARPT   NOT AVBL
LORAIN-ELYRIA  PTCLDY    45  39  79 E8        30.15F
ASHTABULA      CLOUDY    49  44  83 NE5       30.18F
AKRON-CANTON   MOCLDY    49  45  86 E8        30.12F
WOOSTER        CLOUDY    48  46  93 E8        30.11F
MANSFIELD      CLOUDY    48  45  89 E10       30.10F
YOUNGSTOWN     CLOUDY    50  48  93 NE8       30.15F FOG
$$

OHZ042-051>053-060>062-070>072-077>081-300500-
  SOUTHWEST OHIO

CITY           SKY/WX    TMP DP  RH WIND       PRES   REMARKS
CINC-COVINGTON CLOUDY    73  67  81 S7        29.94F
CINC-LUNKEN    PTCLDY    66  66 100 CALM      29.94F FOG
HAMILTON       MOCLDY    68  66  93 NE6       29.96S
DAYTON         CLOUDY    54  53  97 E14       29.99F FOG
WRIGHT-PAT AFB CLOUDY    56  56 100 E9        29.99F FOG
DAYTON GENERAL CLOUDY    60  58  92 E16       29.96F
WILMINGTON     PTCLDY    60  60 100 NE8       29.98F FOG
$$

OHZ036-037-039>041-045>050-054>059-063>069-073>076-082>088-300500-
  CENTRAL AND SOUTHEAST OHIO

CITY           SKY/WX    TMP DP  RH WIND       PRES   REMARKS
COLUMBUS       CLOUDY    56  56 100 E12       30.04F FOG
OSU AIRPORT    CLOUDY    53  53 100 NE13      30.04F FOG
BOLTON FIELD   NOT AVBL
RICKENBACK AFB CLOUDY    58  58 100 E15       30.03F FOG
NEWARK         CLOUDY    56  54  93 VRB7      30.06F FOG
MARION         MOCLDY    50  47  89 E9        30.07F
LANCASTER      CLOUDY    61  59  93 E9        30.04F FOG
ZANESVILLE     CLOUDY    60  58  92 NE8       30.07F
NEW PHILLY     NOT AVBL
$$




USA.gov is the U.S. government's official web portal to all federal, state and local government web resources and services.